Location: Sihaung
(22.8641°N, 94.0549°E)
Time: 12:21:55
(UTC+00:00)

Skynet4D Del rocket - Pass Details

Date: 03 March 2021
Orbit: 763 x 1291 km, 26.9° (Epoch: 10 April)

Event Time Altitude Azimuth Distance (km) Brightness Sun altitude
Exits shadow 22:21:14 67° 253° (WSW) 823 3.3 -24.2°
Maximum altitude 22:21:59 89° 174° (S) 763 3.4 -24.0°
Drops below altitude 10° 22:27:20 10° 75° (ENE) 2,295 7.0 -22.8°
Sets 22:29:50 0° 75° (ENE) 3,246 8.1 -22.2°
